When you browse on this site, cookies collect data to enhance your experience and personalize the content and advertising you see.
Visit our Privacy Policy to learn more. By continuing to use the site, you agree to this use of cookies and data.
  • In Spain
  • List of Countries
  • For 7 days
  • Water Temperature
  • Satellite Maps
  • Weather Map
  • Weather Widgets
  • user-avatar
    Login

    Hourly Weather Kruhlyk

    Today, 24 May, Friday

    Time Temperature Precipitation Wind Pressure Humidity
    00:00 +14°C° 0 mm 2 mps 734 mmHg 83%
    01:00 +14°C° 0 mm 2 mps 734 mmHg 84%
    02:00 +14°C° 0 mm 2 mps 734 mmHg 85%
    03:00 +13°C° 0 mm 1 mps 734 mmHg 89%
    04:00 +14°C° 0 mm 1 mps 734 mmHg 87%
    05:00 +14°C° 0 mm 1 mps 734 mmHg 86%
    06:00 +15°C° 0 mm 1 mps 735 mmHg 84%
    07:00 +18°C° 0 mm 1 mps 735 mmHg 77%
    08:00 +19°C° 0 mm 1 mps 735 mmHg 70%
    09:00 +21°C° 0 mm 1 mps 735 mmHg 63%
    10:00 +22°C° 0 mm 1 mps 735 mmHg 58%
    11:00 +24°C° 0 mm 1 mps 735 mmHg 53%
    12:00 +25°C° 0 mm 1 mps 735 mmHg 49%
    13:00 +26°C° 0 mm 1 mps 735 mmHg 46%
    14:00 +26°C° 0 mm 1 mps 735 mmHg 44%
    15:00 +26°C° 0 mm 1 mps 735 mmHg 42%
    16:00 +26°C° 0 mm 1 mps 735 mmHg 46%
    17:00 +25°C° 0 mm 1 mps 735 mmHg 50%
    18:00 +25°C° 0 mm 1 mps 735 mmHg 54%
    19:00 +23°C° 0 mm 1 mps 735 mmHg 61%
    20:00 +20°C° 0 mm 2 mps 735 mmHg 67%
    21:00 +19°C° 0 mm 2 mps 735 mmHg 73%
    22:00 +18°C° 0 mm 2 mps 735 mmHg 76%
    23:00 +17°C° 0 mm 2 mps 735 mmHg 79%

    Tomorrow, 25 May, Saturday

    Time Temperature Precipitation Wind Pressure Humidity
    00:00 +17°C° 0 mm 2 mps 735 mmHg 82%
    01:00 +16°C° 0 mm 2 mps 735 mmHg 82%
    02:00 +16°C° 0 mm 2 mps 735 mmHg 81%
    03:00 +15°C° 0 mm 2 mps 735 mmHg 80%
    04:00 +16°C° 0 mm 2 mps 735 mmHg 80%
    05:00 +16°C° 0 mm 2 mps 735 mmHg 79%
    06:00 +16°C° 0 mm 2 mps 735 mmHg 78%
    07:00 +18°C° 0 mm 2 mps 735 mmHg 74%
    08:00 +20°C° 0 mm 3 mps 735 mmHg 70%
    09:00 +21°C° 0 mm 3 mps 735 mmHg 66%
    10:00 +22°C° 1.1 mm 3 mps 735 mmHg 64%
    11:00 +22°C° 1.1 mm 4 mps 735 mmHg 63%
    12:00 +23°C° 1.1 mm 4 mps 735 mmHg 62%
    13:00 +23°C° 1.9 mm 4 mps 734 mmHg 64%
    14:00 +23°C° 1.9 mm 4 mps 734 mmHg 65%
    15:00 +22°C° 1.9 mm 5 mps 734 mmHg 66%
    16:00 +21°C° 1.6 mm 4 mps 734 mmHg 72%
    17:00 +21°C° 1.6 mm 3 mps 733 mmHg 77%
    18:00 +20°C° 1.6 mm 3 mps 733 mmHg 83%
    19:00 +19°C° 1.6 mm 2 mps 733 mmHg 86%
    20:00 +19°C° 1.6 mm 1 mps 733 mmHg 89%
    21:00 +18°C° 1.6 mm 1 mps 733 mmHg 91%
    22:00 +17°C° 4 mm 2 mps 732 mmHg 91%
    23:00 +17°C° 4 mm 4 mps 732 mmHg 92%

    Day after tomorrow, 26 May, Sunday

    Time Temperature Precipitation Wind Pressure Humidity
    00:00 +15°C° 4 mm 5 mps 732 mmHg 92%
    01:00 +15°C° 0.8 mm 5 mps 732 mmHg 93%
    02:00 +15°C° 0.8 mm 5 mps 732 mmHg 93%
    03:00 +15°C° 0.8 mm 5 mps 731 mmHg 94%
    04:00 +15°C° 1.6 mm 5 mps 732 mmHg 92%
    05:00 +15°C° 1.6 mm 4 mps 732 mmHg 90%
    06:00 +15°C° 1.6 mm 4 mps 732 mmHg 87%
    07:00 +16°C° 1 mm 5 mps 732 mmHg 86%
    08:00 +16°C° 1 mm 5 mps 733 mmHg 84%
    09:00 +17°C° 1 mm 5 mps 733 mmHg 83%
    10:00 +19°C° 1.1 mm 5 mps 733 mmHg 79%
    11:00 +20°C° 1.1 mm 6 mps 733 mmHg 75%
    12:00 +21°C° 1.1 mm 6 mps 733 mmHg 71%
    13:00 +21°C° 1.2 mm 6 mps 734 mmHg 70%
    14:00 +21°C° 1.2 mm 7 mps 734 mmHg 70%
    15:00 +21°C° 1.2 mm 7 mps 734 mmHg 70%
    16:00 +21°C° 0.4 mm 6 mps 734 mmHg 72%
    17:00 +21°C° 0.4 mm 6 mps 734 mmHg 75%
    18:00 +21°C° 0.4 mm 5 mps 734 mmHg 77%
    19:00 +20°C° 1.9 mm 5 mps 734 mmHg 80%
    20:00 +19°C° 1.9 mm 4 mps 734 mmHg 82%
    21:00 +18°C° 1.9 mm 4 mps 735 mmHg 85%
    22:00 +17°C° 1.6 mm 3 mps 735 mmHg 87%
    23:00 +17°C° 1.6 mm 3 mps 735 mmHg 89%

    27 May, Monday

    Time Temperature Precipitation Wind Pressure Humidity
    00:00 +17°C° 1.6 mm 3 mps 736 mmHg 92%
    01:00 +17°C° 0 mm 3 mps 736 mmHg 92%
    02:00 +16°C° 0 mm 3 mps 736 mmHg 92%
    03:00 +16°C° 0 mm 3 mps 737 mmHg 93%
    04:00 +16°C° 0 mm 3 mps 737 mmHg 92%
    05:00 +16°C° 0 mm 3 mps 738 mmHg 91%
    06:00 +16°C° 0 mm 3 mps 738 mmHg 91%
    07:00 +18°C° 0 mm 3 mps 738 mmHg 85%
    08:00 +19°C° 0 mm 3 mps 739 mmHg 79%
    09:00 +21°C° 0 mm 4 mps 739 mmHg 74%
    10:00 +22°C° 0 mm 4 mps 740 mmHg 68%
    11:00 +23°C° 0 mm 4 mps 740 mmHg 62%
    12:00 +25°C° 0 mm 4 mps 740 mmHg 56%
    13:00 +25°C° 0 mm 4 mps 740 mmHg 56%
    14:00 +25°C° 0 mm 3 mps 741 mmHg 55%
    15:00 +25°C° 0 mm 3 mps 741 mmHg 55%
    16:00 +25°C° 0 mm 3 mps 741 mmHg 57%
    17:00 +25°C° 0 mm 3 mps 741 mmHg 59%
    18:00 +25°C° 0 mm 2 mps 741 mmHg 61%
    19:00 +23°C° 0 mm 2 mps 741 mmHg 65%
    20:00 +21°C° 0 mm 1 mps 742 mmHg 69%
    21:00 +20°C° 0 mm 1 mps 742 mmHg 72%
    22:00 +17°C° 0 mm 0 mps 742 mmHg 74%
    23:00 +17°C° 0 mm 0 mps 742 mmHg 75%

    28 May, Tuesday

    Time Temperature Precipitation Wind Pressure Humidity
    00:00 +16°C° 0 mm 0 mps 742 mmHg 76%
    01:00 +16°C° 0 mm 0 mps 742 mmHg 77%
    02:00 +18°C° 0 mm 1 mps 742 mmHg 78%
    03:00 +18°C° 0 mm 1 mps 742 mmHg 79%
    04:00 +18°C° 0 mm 1 mps 743 mmHg 79%
    05:00 +19°C° 0 mm 1 mps 743 mmHg 79%
    06:00 +19°C° 0 mm 1 mps 743 mmHg 78%
    07:00 +21°C° 0 mm 1 mps 743 mmHg 73%
    08:00 +23°C° 0 mm 1 mps 744 mmHg 67%
    09:00 +24°C° 0 mm 1 mps 744 mmHg 61%
    10:00 +25°C° 0 mm 1 mps 744 mmHg 58%
    11:00 +26°C° 0 mm 2 mps 744 mmHg 54%
    12:00 +27°C° 0 mm 2 mps 744 mmHg 51%
    13:00 +27°C° 0 mm 2 mps 744 mmHg 50%
    14:00 +28°C° 0 mm 2 mps 743 mmHg 50%
    15:00 +28°C° 0 mm 2 mps 743 mmHg 49%
    16:00 +28°C° 0 mm 2 mps 743 mmHg 52%
    17:00 +28°C° 0 mm 2 mps 743 mmHg 56%
    18:00 +27°C° 0 mm 2 mps 743 mmHg 59%
    19:00 +26°C° 0 mm 2 mps 743 mmHg 64%
    20:00 +24°C° 0 mm 2 mps 743 mmHg 68%
    21:00 +21°C° 0 mm 2 mps 743 mmHg 73%
    22:00 +20°C° 0 mm 2 mps 743 mmHg 73%
    23:00 +20°C° 0 mm 2 mps 743 mmHg 74%

    29 May, Wednesday

    Time Temperature Precipitation Wind Pressure Humidity
    00:00 +19°C° 0 mm 2 mps 743 mmHg 74%
    01:00 +19°C° 0 mm 2 mps 743 mmHg 75%
    02:00 +18°C° 0 mm 2 mps 743 mmHg 76%
    03:00 +18°C° 0 mm 2 mps 743 mmHg 77%
    04:00 +18°C° 0 mm 2 mps 743 mmHg 77%
    05:00 +18°C° 0 mm 2 mps 743 mmHg 78%
    06:00 +19°C° 0 mm 2 mps 743 mmHg 78%
    07:00 +21°C° 0 mm 3 mps 743 mmHg 72%
    08:00 +22°C° 0 mm 4 mps 743 mmHg 66%
    09:00 +25°C° 0 mm 5 mps 743 mmHg 59%
    10:00 +26°C° 0 mm 5 mps 743 mmHg 57%
    11:00 +27°C° 0 mm 5 mps 743 mmHg 55%
    12:00 +28°C° 0 mm 5 mps 743 mmHg 53%
    13:00 +28°C° 0 mm 5 mps 743 mmHg 52%
    14:00 +29°C° 0 mm 5 mps 742 mmHg 51%
    15:00 +29°C° 0 mm 5 mps 742 mmHg 51%
    16:00 +29°C° 0 mm 4 mps 742 mmHg 54%
    17:00 +28°C° 0 mm 4 mps 742 mmHg 58%
    18:00 +28°C° 0 mm 3 mps 742 mmHg 62%
    19:00 +26°C° 0 mm 3 mps 742 mmHg 66%
    20:00 +24°C° 0 mm 3 mps 742 mmHg 70%
    21:00 +21°C° 0 mm 3 mps 742 mmHg 74%
    22:00 +21°C° 0 mm 3 mps 741 mmHg 75%
    23:00 +20°C° 0 mm 3 mps 741 mmHg 75%
    Show more